Regional Weather Roundup
Issued by NWS Charleston, SC

Current Version | Previous Version | Graphics & Text | Print | Product List | Glossary On
Versions: 1 2 3 4 5 6 7 8 9 10 11 12 13 14 15 16 17 18 19 20 21 22 23 24 25 26 27 28 29 30 31 32 33 34 35 36 37 38 39 40 41 42 43 44 45 46 47 48 49 50
000
ASUS42 KCHS 010310
RWRCHS
REGIONAL WEATHER ROUNDUP
NATIONAL WEATHER SERVICE CHARLESTON SC
1100 PM EDT THU JUL 31 2014

NOTE: "FAIR" INDICATES FEW OR NO CLOUDS BELOW 12,000 FEET WITH NO
SIGNIFICANT WEATHER AND/OR OBSTRUCTIONS TO VISIBILITY.

NOT ALL STATIONS ARE QUALITY CONTROLLED BY THE NATIONAL
WEATHER SERVICE. USE DATA WITH CAUTION...ESPECIALLY
DEWPOINT OBSERVATIONS.

SCZ027-030-031-034>040-042>050-010400-
...SOUTH CAROLINA...

CITY           SKY/WX    TMP DP  RH WIND       PRES   REMARKS
N CHARLESTON   LGT RAIN  76  73  91 NE7       30.04S
WATERFRONT PRK   N/A     79 N/A N/A E8          N/A
FORT JOHNSON   NOT AVBL
MOUNT PLEASANT DRIZZLE   75  73  94 CALM      30.04S
JOHNS ISLAND   MOCLDY    75  72  88 CALM      30.04R
PINOPOLIS        N/A     77  72  83 NE14      29.97R
MONCKS CORNER  NOT AVBL
SUMMERVILLE    FAIR      73  73 100 NE3       30.05S
BEAUFORT MCAS  MOCLDY    76  74  93 E7        30.04R
BEAUFORT ARPT  FAIR      79  77  94 N7        30.03R
HILTON HEAD IS MOCLDY    79  73  83 CALM      30.04R
GEORGETOWN     NOT AVBL
WALTERBORO     MOCLDY    73 N/A N/A NE3       30.06R
ORANGEBURG     MOCLDY    73  68  84 NE3       30.07R
BARNWELL       CLOUDY    75  72  88 E8        30.07R
AIKEN          DRIZZLE   70  70 100 NE5       30.11S
MANNING        FAIR      72 N/A N/A NE5       30.07S
KINGSTREE      NOT AVBL
COLUMBIA       LGT RAIN  74  66  76 NE7       30.08R
SUMTER         NOT AVBL
FLORENCE       LGT RAIN  74  71  91 E8        30.09S
MYRTLE BEACH   CLOUDY    81  73  78 E16       30.07S
N MYRTLE BEACH CLOUDY    81  73  76 E13       30.07F

$$

GAZ063-065-086>088-099>101-113>116-118-119-134-136>141-150-010400-
...GEORGIA...

CITY           SKY/WX    TMP DP  RH WIND       PRES   REMARKS
SAVANNAH ARPT  CLOUDY    78  75  90 NE5       30.02S
HUNTER AAF     NOT AVBL
FORT STEWART   NOT AVBL
STATESBORO     NOT AVBL
SYLVANIA       MOCLDY    75  74  98 E5        30.04S
CLAXTON        FAIR      77  77 100 NE3       30.01S
THOMSON        CLOUDY    72  72 100 CALM      30.12R
AUGUSTA-BUSH   CLOUDY    73  69  87 N5        30.06R
AUGUSTA-DANIEL CLOUDY    73  69  87 NE8       30.08R
SWAINSBORO     LGT RAIN  79  79 100 NE6       30.04S
VIDALIA          N/A     77  73  88 NE5       30.02S
ALMA           PTCLDY    81  68  64 SE5       30.00R
WAYCROSS       PTCLDY    83  73  71 S6        30.00S HX  90
JESUP          FAIR      81  73  78 CALM      30.01S
BRUNSWICK      PTCLDY    86  70  58 SE8       30.00S HX  90
SAINT SIMONS   MOCLDY    84  71  65 SE13G18   30.00R

$$

SCZ027-028-034-036>038-045-046-048>050-GAZ119-141-010400-
...LAKE AND SUPPLEMENTAL COASTAL OBSERVATIONS...

STATION/POSITION TIME  TEMP    WIND        PRES    WAVE   SWELL
                       AIR SEA DIR/SP/G            HT/PER HT/PER/DIR
                 (UTC) (F)     (DEG/KT/KT) (MB)    (FT/S) (FT/S/D)
UPR LAKE MARION  NOT AVBL
WINYAH BAY       0200   80      70/ 14     1017.0R
LAKE MURRAY      0200   71      10/  2/  4 1018.3R
ACE BASIN NERRS  0200   75      20/  1     1017.0R
FORT PULASKI     0300   82     120/  4/  5 1016.7S
SAPELO ISLAND    0200   83     140/  5     1016.0S

$$

ANZ835-935-AMZ111-154-330-350-352-354-374-450-454-472-010400-
...C-MAN AND BUOY OBSERVATIONS...

STATION/POSITION TIME  TEMP    WIND        PRES    WAVE   SWELL
                       AIR SEA DIR/SP/G            HT/PER HT/PER/DIR
                 (UTC) (F)     (DEG/KT/KT) (MB)    (FT/S) (FT/S/D)
FOLLY BEACH CMAN 0200   82     150/ 11/ 13 1017.2R
BUOY 41004       0300   83 83  130/ 12/ 12 1016.4R   4/ 6   3/ 6
BUOY 41008       0300   85 85  140/ 12/ 14 1016.0R   3/ 5   2/ 90/ 7
5E ST. MARYS GA  0300      86                N/A     3/ 3
FRYING PAN BUOY  NOT AVBL
BUOY 41025       0300          VRB 14/ 17  1020.6S   4/ 6   2/100/ 8
CAPE LOOKOUT NC  0200   80     100/ 15/ 16 1020.0R
BUOY 41002       0235   81 81  170/  8/ 10 1020.1R   4/ 6   3/110/ 6
BUOY 41010       0300   83 84  140/ 14/ 16 1017.1R   2/ 8   2/ 90/ 8
BUOY 41012       NOT AVBL
ST AUGUSTINE FL  0300   83     140/ 10/ 11 1016.2R
CAPERS NEARSHORE 0200   82     160/ 12/ 14   N/A
FRIPP NEARSHORE  NOT AVBL


$$


USA.gov is the U.S. government's official web portal to all federal, state and local government web resources and services.